Time,TemperatureF,DewpointF,PressureIn,WindDirection,WindDirectionDegrees,WindSpeedMPH,WindSpeedGustMPH,Humidity,HourlyPrecipIn,Conditions,Clouds,dailyrainin,SoftwareType,DateUTC
2013-08-03 00:02:00,73.6,49.7,29.73,ESE,123,4.0,7.0,43,0.00,,,0.00,WUHU216DAVISVP2,2013-08-03 06:02:00,
2013-08-03 00:07:00,74.1,49.5,29.72,SSW,204,2.0,7.0,42,0.00,,,0.00,WUHU216DAVISVP2,2013-08-03 06:07:00,
2013-08-03 00:12:00,74.4,49.1,29.73,SE,133,7.0,9.0,41,0.00,,,0.00,WUHU216DAVISVP2,2013-08-03 06:12:00,
2013-08-03 00:17:00,74.6,49.3,29.73,SSE,166,4.0,9.0,41,0.00,,,0.00,WUHU216DAVISVP2,2013-08-03 06:17:00,
2013-08-03 00:22:00,74.7,49.4,29.73,South,181,6.0,9.0,41,0.00,,,0.00,WUHU216DAVISVP2,2013-08-03 06:22:00,
2013-08-03 00:27:00,74.7,48.7,29.73,South,182,5.0,9.0,40,0.00,,,0.00,WUHU216DAVISVP2,2013-08-03 06:27:00,
2013-08-03 00:32:00,74.9,48.9,29.73,SSW,200,1.0,9.0,40,0.00,,,0.00,WUHU216DAVISVP2,2013-08-03 06:32:00,
2013-08-03 00:37:00,74.8,48.8,29.73,ESE,118,0.0,9.0,40,0.00,,,0.00,WUHU216DAVISVP2,2013-08-03 06:37:00,
2013-08-03 00:42:00,74.4,49.1,29.73,ESE,120,0.0,9.0,41,0.00,,,0.00,WUHU216DAVISVP2,2013-08-03 06:42:00,
2013-08-03 00:47:00,74.0,49.4,29.73,SSW,209,2.0,5.0,42,0.00,,,0.00,WUHU216DAVISVP2,2013-08-03 06:47:00,
2013-08-03 00:52:00,73.9,49.3,29.73,SE,145,0.0,5.0,42,0.00,,,0.00,WUHU216DAVISVP2,2013-08-03 06:52:00,
2013-08-03 00:57:00,73.9,49.3,29.73,SSW,198,0.0,5.0,42,0.00,,,0.00,WUHU216DAVISVP2,2013-08-03 06:57:00,
2013-08-03 01:02:00,73.7,49.1,29.73,SSE,152,0.0,5.0,42,0.00,,,0.00,WUHU216DAVISVP2,2013-08-03 07:02:00,
2013-08-03 01:07:00,73.4,49.5,29.73,South,191,3.0,5.0,43,0.00,,,0.00,WUHU216DAVISVP2,2013-08-03 07:07:00,
2013-08-03 01:12:00,73.1,49.9,29.73,South,181,0.0,3.0,44,0.00,,,0.00,WUHU216DAVISVP2,2013-08-03 07:12:00,
2013-08-03 01:17:00,72.8,49.6,29.73,South,183,0.0,3.0,44,0.00,,,0.00,WUHU216DAVISVP2,2013-08-03 07:17:00,
2013-08-03 01:22:00,72.4,49.8,29.72,SE,131,0.0,3.0,45,0.00,,,0.00,WUHU216DAVISVP2,2013-08-03 07:22:00,
2013-08-03 01:27:00,72.0,50.1,29.72,SE,131,0.0,2.0,46,0.00,,,0.00,WUHU216DAVISVP2,2013-08-03 07:27:00,
2013-08-03 01:32:00,71.7,49.8,29.72,WNW,290,0.0,1.0,46,0.00,,,0.00,WUHU216DAVISVP2,2013-08-03 07:32:00,
2013-08-03 01:37:00,71.8,49.9,29.72,SW,231,0.0,2.0,46,0.00,,,0.00,WUHU216DAVISVP2,2013-08-03 07:37:00,
2013-08-03 01:42:00,71.9,49.4,29.72,WSW,249,0.0,2.0,45,0.00,,,0.00,WUHU216DAVISVP2,2013-08-03 07:42:00,
2013-08-03 01:47:00,71.7,49.8,29.72,WSW,249,0.0,2.0,46,0.00,,,0.00,WUHU216DAVISVP2,2013-08-03 07:47:00,
2013-08-03 01:52:00,71.4,50.1,29.72,West,274,0.0,2.0,47,0.00,,,0.00,WUHU216DAVISVP2,2013-08-03 07:52:00,
2013-08-03 01:57:00,71.0,50.9,29.72,West,274,0.0,2.0,49,0.00,,,0.00,WUHU216DAVISVP2,2013-08-03 07:57:00,
2013-08-03 02:02:00,70.4,50.9,29.72,West,274,0.0,1.0,50,0.00,,,0.00,WUHU216DAVISVP2,2013-08-03 08:02:00,
2013-08-03 02:07:00,70.0,51.1,29.72,West,274,0.0,1.0,51,0.00,,,0.00,WUHU216DAVISVP2,2013-08-03 08:07:00,
2013-08-03 02:12:00,69.6,51.3,29.72,West,274,0.0,1.0,52,0.00,,,0.00,WUHU216DAVISVP2,2013-08-03 08:12:00,
2013-08-03 02:17:00,69.1,51.3,29.73,West,274,0.0,1.0,53,0.00,,,0.00,WUHU216DAVISVP2,2013-08-03 08:17:00,
2013-08-03 02:22:00,68.9,51.2,29.72,West,274,0.0,1.0,53,0.00,,,0.00,WUHU216DAVISVP2,2013-08-03 08:22:00,
2013-08-03 02:27:00,68.7,51.5,29.72,West,275,0.0,1.0,54,0.00,,,0.00,WUHU216DAVISVP2,2013-08-03 08:27:00,
2013-08-03 02:32:00,68.5,51.8,29.72,North,8,0.0,2.0,55,0.00,,,0.00,WUHU216DAVISVP2,2013-08-03 08:32:00,
2013-08-03 02:37:00,68.2,52.0,29.72,ENE,57,1.0,2.0,56,0.00,,,0.00,WUHU216DAVISVP2,2013-08-03 08:37:00,
2013-08-03 02:42:00,68.0,52.3,29.73,East,86,0.0,2.0,57,0.00,,,0.00,WUHU216DAVISVP2,2013-08-03 08:42:00,
2013-08-03 02:47:00,67.7,51.9,29.73,East,93,0.0,2.0,57,0.00,,,0.00,WUHU216DAVISVP2,2013-08-03 08:47:00,
2013-08-03 02:52:00,67.4,51.2,29.73,East,93,0.0,2.0,56,0.00,,,0.00,WUHU216DAVISVP2,2013-08-03 08:52:00,
2013-08-03 02:57:00,67.3,51.5,29.73,East,93,0.0,2.0,57,0.00,,,0.00,WUHU216DAVISVP2,2013-08-03 08:57:00,
2013-08-03 03:02:00,67.1,51.4,29.73,ESE,110,0.0,2.0,57,0.00,,,0.00,WUHU216DAVISVP2,2013-08-03 09:02:00,
2013-08-03 03:07:00,67.2,51.4,29.73,East,86,0.0,2.0,57,0.00,,,0.00,WUHU216DAVISVP2,2013-08-03 09:07:00,
2013-08-03 03:12:00,67.3,51.2,29.73,East,87,0.0,2.0,56,0.00,,,0.00,WUHU216DAVISVP2,2013-08-03 09:12:00,
2013-08-03 03:17:00,67.1,51.5,29.72,East,87,0.0,2.0,57,0.00,,,0.00,WUHU216DAVISVP2,2013-08-03 09:17:00,
2013-08-03 03:22:00,67.2,51.1,29.72,East,86,0.0,2.0,56,0.00,,,0.00,WUHU216DAVISVP2,2013-08-03 09:22:00,
2013-08-03 03:27:00,67.2,51.6,29.72,East,86,0.0,1.0,57,0.00,,,0.00,WUHU216DAVISVP2,2013-08-03 09:27:00,
2013-08-03 03:32:00,66.9,51.8,29.72,East,86,0.0,1.0,58,0.00,,,0.00,WUHU216DAVISVP2,2013-08-03 09:32:00,
2013-08-03 03:37:00,66.6,52.0,29.72,East,86,0.0,1.0,59,0.00,,,0.00,WUHU216DAVISVP2,2013-08-03 09:37:00,
2013-08-03 03:42:00,66.3,51.7,29.72,East,86,0.0,1.0,59,0.00,,,0.00,WUHU216DAVISVP2,2013-08-03 09:42:00,
2013-08-03 03:47:00,66.0,51.9,29.72,East,86,0.0,0.0,60,0.00,,,0.00,WUHU216DAVISVP2,2013-08-03 09:47:00,
2013-08-03 03:52:00,65.9,52.2,29.72,East,87,0.0,1.0,61,0.00,,,0.00,WUHU216DAVISVP2,2013-08-03 09:52:00,
2013-08-03 03:57:00,65.7,52.0,29.72,East,87,0.0,1.0,61,0.00,,,0.00,WUHU216DAVISVP2,2013-08-03 09:57:00,
2013-08-03 04:02:00,65.3,52.1,29.73,East,87,0.0,1.0,62,0.00,,,0.00,WUHU216DAVISVP2,2013-08-03 10:02:00,
2013-08-03 04:07:00,64.9,52.2,29.72,East,87,0.0,1.0,63,0.00,,,0.00,WUHU216DAVISVP2,2013-08-03 10:07:00,
2013-08-03 04:12:00,64.6,52.3,29.72,East,87,0.0,0.0,64,0.00,,,0.00,WUHU216DAVISVP2,2013-08-03 10:12:00,
2013-08-03 04:17:00,64.4,52.5,29.72,East,87,0.0,0.0,65,0.00,,,0.00,WUHU216DAVISVP2,2013-08-03 10:17:00,
2013-08-03 04:22:00,64.3,52.4,29.72,East,87,0.0,0.0,65,0.00,,,0.00,WUHU216DAVISVP2,2013-08-03 10:22:00,
2013-08-03 04:27:00,64.2,52.4,29.72,East,86,0.0,0.0,65,0.00,,,0.00,WUHU216DAVISVP2,2013-08-03 10:27:00,
2013-08-03 04:32:00,63.9,52.7,29.73,East,87,0.0,1.0,67,0.00,,,0.00,WUHU216DAVISVP2,2013-08-03 10:32:00,
2013-08-03 04:37:00,63.8,52.6,29.72,East,87,0.0,1.0,67,0.00,,,0.00,WUHU216DAVISVP2,2013-08-03 10:37:00,
2013-08-03 04:42:00,63.6,52.4,29.73,East,87,0.0,1.0,67,0.00,,,0.00,WUHU216DAVISVP2,2013-08-03 10:42:00,
2013-08-03 04:47:00,63.2,52.9,29.73,East,87,0.0,1.0,69,0.00,,,0.00,WUHU216DAVISVP2,2013-08-03 10:47:00,
2013-08-03 04:52:00,63.0,53.2,29.73,East,87,0.0,1.0,70,0.00,,,0.00,WUHU216DAVISVP2,2013-08-03 10:52:00,
2013-08-03 04:57:00,63.0,53.2,29.72,East,87,0.0,1.0,70,0.00,,,0.00,WUHU216DAVISVP2,2013-08-03 10:57:00,
2013-08-03 05:02:00,62.7,52.9,29.72,SE,131,0.0,1.0,70,0.00,,,0.00,WUHU216DAVISVP2,2013-08-03 11:02:00,
2013-08-03 05:07:00,62.6,53.2,29.73,SE,130,0.0,1.0,71,0.00,,,0.00,WUHU216DAVISVP2,2013-08-03 11:07:00,
2013-08-03 05:12:00,62.7,53.3,29.73,SE,130,0.0,1.0,71,0.00,,,0.00,WUHU216DAVISVP2,2013-08-03 11:12:00,
2013-08-03 05:17:00,62.4,52.6,29.73,SE,130,0.0,0.0,70,0.00,,,0.00,WUHU216DAVISVP2,2013-08-03 11:17:00,
2013-08-03 05:22:00,62.2,52.8,29.73,SE,130,0.0,0.0,71,0.00,,,0.00,WUHU216DAVISVP2,2013-08-03 11:22:00,
2013-08-03 05:27:00,62.0,53.4,29.73,SE,130,0.0,0.0,73,0.00,,,0.00,WUHU216DAVISVP2,2013-08-03 11:27:00,
2013-08-03 05:32:00,61.8,53.2,29.73,SE,130,0.0,0.0,73,0.00,,,0.00,WUHU216DAVISVP2,2013-08-03 11:32:00,
2013-08-03 05:37:00,61.9,53.3,29.73,SE,130,0.0,1.0,73,0.00,,,0.00,WUHU216DAVISVP2,2013-08-03 11:37:00,
2013-08-03 05:42:00,62.0,53.4,29.74,SE,130,0.0,1.0,73,0.00,,,0.00,WUHU216DAVISVP2,2013-08-03 11:42:00,
2013-08-03 05:47:00,62.2,53.6,29.74,SE,130,0.0,1.0,73,0.00,,,0.00,WUHU216DAVISVP2,2013-08-03 11:47:00,
2013-08-03 05:52:00,62.0,53.2,29.74,SE,130,0.0,1.0,73,0.00,,,0.00,WUHU216DAVISVP2,2013-08-03 11:52:00,
2013-08-03 05:57:00,61.8,53.4,29.74,SE,130,0.0,1.0,74,0.00,,,0.00,WUHU216DAVISVP2,2013-08-03 11:57:00,
2013-08-03 06:02:00,61.5,53.1,29.74,SE,130,0.0,1.0,74,0.00,,,0.00,WUHU216DAVISVP2,2013-08-03 12:02:00,
2013-08-03 06:07:00,61.5,53.6,29.74,SE,130,0.0,0.0,75,0.00,,,0.00,WUHU216DAVISVP2,2013-08-03 12:07:00,
2013-08-03 06:12:00,61.4,53.5,29.74,SE,130,0.0,0.0,75,0.00,,,0.00,WUHU216DAVISVP2,2013-08-03 12:12:00,
2013-08-03 06:17:00,61.3,53.3,29.75,SE,130,0.0,0.0,75,0.00,,,0.00,WUHU216DAVISVP2,2013-08-03 12:17:00,
2013-08-03 06:22:00,61.2,53.7,29.75,SE,130,0.0,0.0,76,0.00,,,0.00,WUHU216DAVISVP2,2013-08-03 12:22:00,
2013-08-03 06:27:00,61.5,54.0,29.75,SE,130,0.0,0.0,76,0.00,,,0.00,WUHU216DAVISVP2,2013-08-03 12:27:00,
2013-08-03 06:32:00,61.7,53.8,29.75,SE,130,0.0,0.0,75,0.00,,,0.00,WUHU216DAVISVP2,2013-08-03 12:32:00,
2013-08-03 06:37:00,61.7,53.8,29.75,SE,129,0.0,0.0,75,0.00,,,0.00,WUHU216DAVISVP2,2013-08-03 12:37:00,
2013-08-03 06:42:00,61.9,54.0,29.75,SE,130,0.0,0.0,75,0.00,,,0.00,WUHU216DAVISVP2,2013-08-03 12:42:00,
2013-08-03 06:47:00,62.1,54.2,29.76,SE,130,0.0,0.0,75,0.00,,,0.00,WUHU216DAVISVP2,2013-08-03 12:47:00,
2013-08-03 06:52:00,62.5,54.2,29.76,SE,130,0.0,0.0,74,0.00,,,0.00,WUHU216DAVISVP2,2013-08-03 12:52:00,
2013-08-03 06:57:00,62.9,54.2,29.76,SE,130,0.0,0.0,73,0.00,,,0.00,WUHU216DAVISVP2,2013-08-03 12:57:00,
2013-08-03 07:02:00,63.1,54.8,29.76,SE,130,0.0,0.0,74,0.00,,,0.00,WUHU216DAVISVP2,2013-08-03 13:02:00,
2013-08-03 07:07:00,63.3,55.4,29.76,SE,130,0.0,0.0,75,0.00,,,0.00,WUHU216DAVISVP2,2013-08-03 13:07:00,
2013-08-03 07:12:00,63.5,55.2,29.76,SE,130,0.0,0.0,74,0.00,,,0.00,WUHU216DAVISVP2,2013-08-03 13:12:00,
2013-08-03 07:17:00,63.7,55.4,29.76,SE,130,0.0,0.0,74,0.00,,,0.00,WUHU216DAVISVP2,2013-08-03 13:17:00,
2013-08-03 07:22:00,63.9,55.6,29.76,SE,130,0.0,0.0,74,0.00,,,0.00,WUHU216DAVISVP2,2013-08-03 13:22:00,
2013-08-03 07:27:00,64.2,55.9,29.76,SE,130,0.0,0.0,74,0.00,,,0.00,WUHU216DAVISVP2,2013-08-03 13:27:00,
2013-08-03 07:32:00,64.6,55.5,29.76,SE,130,0.0,0.0,72,0.00,,,0.00,WUHU216DAVISVP2,2013-08-03 13:32:00,
2013-08-03 07:37:00,65.0,55.5,29.76,SE,130,0.0,0.0,71,0.00,,,0.00,WUHU216DAVISVP2,2013-08-03 13:37:00,
2013-08-03 07:42:00,65.7,56.2,29.76,SE,130,0.0,0.0,71,0.00,,,0.00,WUHU216DAVISVP2,2013-08-03 13:42:00,
2013-08-03 07:47:00,66.3,56.4,29.77,SE,130,0.0,0.0,70,0.00,,,0.00,WUHU216DAVISVP2,2013-08-03 13:47:00,
2013-08-03 07:52:00,66.6,56.7,29.77,SE,130,0.0,0.0,70,0.00,,,0.00,WUHU216DAVISVP2,2013-08-03 13:52:00,
2013-08-03 07:57:00,66.6,55.9,29.76,SE,130,0.0,1.0,68,0.00,,,0.00,WUHU216DAVISVP2,2013-08-03 13:57:00,
2013-08-03 08:02:00,66.8,56.5,29.76,SE,130,0.0,1.0,69,0.00,,,0.00,WUHU216DAVISVP2,2013-08-03 14:02:00,
2013-08-03 08:07:00,67.4,56.5,29.76,SE,131,0.0,1.0,68,0.00,,,0.00,WUHU216DAVISVP2,2013-08-03 14:07:00,
2013-08-03 08:12:00,68.0,57.4,29.76,SE,131,0.0,1.0,69,0.00,,,0.00,WUHU216DAVISVP2,2013-08-03 14:12:00,
2013-08-03 08:17:00,68.9,56.6,29.76,SE,134,0.0,1.0,65,0.00,,,0.00,WUHU216DAVISVP2,2013-08-03 14:17:00,
2013-08-03 08:22:00,69.9,56.7,29.76,SE,134,0.0,1.0,63,0.00,,,0.00,WUHU216DAVISVP2,2013-08-03 14:22:00,
2013-08-03 08:27:00,70.9,56.8,29.76,SE,134,0.0,1.0,61,0.00,,,0.00,WUHU216DAVISVP2,2013-08-03 14:27:00,
2013-08-03 08:32:00,71.3,57.3,29.76,SE,134,0.0,1.0,61,0.00,,,0.00,WUHU216DAVISVP2,2013-08-03 14:32:00,
2013-08-03 08:37:00,72.1,57.6,29.76,SW,236,0.0,1.0,60,0.00,,,0.00,WUHU216DAVISVP2,2013-08-03 14:37:00,
2013-08-03 08:42:00,72.3,57.4,29.76,NNW,339,1.0,2.0,59,0.00,,,0.00,WUHU216DAVISVP2,2013-08-03 14:42:00,
2013-08-03 08:48:00,72.8,57.8,29.76,NNW,338,0.0,2.0,59,0.00,,,0.00,WUHU216DAVISVP2,2013-08-03 14:48:00,
2013-08-03 08:53:00,72.9,57.9,29.77,East,83,0.0,2.0,59,0.00,,,0.00,WUHU216DAVISVP2,2013-08-03 14:53:00,
2013-08-03 08:58:00,72.6,58.1,29.77,East,85,0.0,2.0,60,0.00,,,0.00,WUHU216DAVISVP2,2013-08-03 14:58:00,
2013-08-03 09:03:00,73.2,57.7,29.77,East,86,0.0,2.0,58,0.00,,,0.00,WUHU216DAVISVP2,2013-08-03 15:03:00,
2013-08-03 09:07:00,74.3,58.3,29.76,East,87,0.0,2.0,57,0.00,,,0.00,WUHU216DAVISVP2,2013-08-03 15:07:00,
2013-08-03 09:13:00,75.4,59.3,29.77,WSW,253,0.0,1.0,57,0.00,,,0.00,WUHU216DAVISVP2,2013-08-03 15:13:00,
2013-08-03 09:18:00,75.7,58.6,29.77,East,98,0.0,3.0,55,0.00,,,0.00,WUHU216DAVISVP2,2013-08-03 15:18:00,
2013-08-03 09:23:00,75.9,58.7,29.76,SE,143,0.0,3.0,55,0.00,,,0.00,WUHU216DAVISVP2,2013-08-03 15:23:00,
2013-08-03 09:28:00,75.9,58.2,29.76,NNW,346,0.0,3.0,54,0.00,,,0.00,WUHU216DAVISVP2,2013-08-03 15:28:00,
2013-08-03 09:33:00,76.3,59.1,29.76,SSW,193,2.0,4.0,55,0.00,,,0.00,WUHU216DAVISVP2,2013-08-03 15:33:00,
2013-08-03 09:38:00,76.7,58.4,29.76,ESE,122,0.0,4.0,53,0.00,,,0.00,WUHU216DAVISVP2,2013-08-03 15:38:00,
2013-08-03 09:43:00,77.4,58.5,29.77,East,82,2.0,4.0,52,0.00,,,0.00,WUHU216DAVISVP2,2013-08-03 15:43:00,
2013-08-03 09:48:00,77.1,59.2,29.77,SSW,197,0.0,4.0,54,0.00,,,0.00,WUHU216DAVISVP2,2013-08-03 15:48:00,
2013-08-03 09:53:00,77.1,59.2,29.76,ENE,68,1.0,4.0,54,0.00,,,0.00,WUHU216DAVISVP2,2013-08-03 15:53:00,
2013-08-03 09:58:00,77.2,58.3,29.76,ESE,105,1.0,4.0,52,0.00,,,0.00,WUHU216DAVISVP2,2013-08-03 15:58:00,
2013-08-03 10:03:00,77.1,57.7,29.76,ENE,65,1.0,4.0,51,0.00,,,0.00,WUHU216DAVISVP2,2013-08-03 16:03:00,
2013-08-03 10:08:00,77.3,57.3,29.76,WSW,238,0.0,4.0,50,0.00,,,0.00,WUHU216DAVISVP2,2013-08-03 16:08:00,
2013-08-03 10:13:00,77.9,57.3,29.76,SSE,160,0.0,4.0,49,0.00,,,0.00,WUHU216DAVISVP2,2013-08-03 16:13:00,
2013-08-03 10:17:00,79.4,58.7,29.75,East,96,4.0,4.0,49,0.00,,,0.00,WUHU216DAVISVP2,2013-08-03 16:17:00,
2013-08-03 10:22:00,79.4,58.1,29.75,South,169,0.0,4.0,48,0.00,,,0.00,WUHU216DAVISVP2,2013-08-03 16:22:00,
2013-08-03 10:28:00,80.2,57.6,29.75,NNE,20,2.0,5.0,46,0.00,,,0.00,WUHU216DAVISVP2,2013-08-03 16:28:00,
2013-08-03 10:33:00,80.1,56.8,29.75,SSE,150,2.0,5.0,45,0.00,,,0.00,WUHU216DAVISVP2,2013-08-03 16:33:00,
2013-08-03 10:38:00,80.8,56.9,29.75,South,169,3.0,5.0,44,0.00,,,0.00,WUHU216DAVISVP2,2013-08-03 16:38:00,
2013-08-03 10:43:00,81.6,56.9,29.75,East,92,2.0,5.0,43,0.00,,,0.00,WUHU216DAVISVP2,2013-08-03 16:43:00,
2013-08-03 10:48:00,81.3,57.3,29.75,NE,52,0.0,4.0,44,0.00,,,0.00,WUHU216DAVISVP2,2013-08-03 16:48:00,
2013-08-03 10:53:00,81.9,57.2,29.74,South,181,2.0,4.0,43,0.00,,,0.00,WUHU216DAVISVP2,2013-08-03 16:53:00,
2013-08-03 10:58:00,82.6,57.8,29.75,SSW,211,1.0,4.0,43,0.00,,,0.00,WUHU216DAVISVP2,2013-08-03 16:58:00,
2013-08-03 11:03:00,83.1,56.3,29.74,NE,44,2.0,4.0,40,0.00,,,0.00,WUHU216DAVISVP2,2013-08-03 17:03:00,
2013-08-03 11:08:00,83.3,56.4,29.74,ESE,103,2.0,4.0,40,0.00,,,0.00,WUHU216DAVISVP2,2013-08-03 17:08:00,
2013-08-03 11:13:00,82.9,56.0,29.74,NNE,30,1.0,3.0,40,0.00,,,0.00,WUHU216DAVISVP2,2013-08-03 17:13:00,
2013-08-03 11:18:00,83.9,57.6,29.74,NW,315,1.0,3.0,41,0.00,,,0.00,WUHU216DAVISVP2,2013-08-03 17:18:00,
2013-08-03 11:23:00,84.5,57.5,29.74,East,99,2.0,4.0,40,0.00,,,0.00,WUHU216DAVISVP2,2013-08-03 17:23:00,
2013-08-03 11:27:00,83.9,54.7,29.74,NW,314,0.0,4.0,37,0.00,,,0.00,WUHU216DAVISVP2,2013-08-03 17:27:00,
2013-08-03 11:32:00,84.7,54.7,29.74,NNE,32,1.0,4.0,36,0.00,,,0.00,WUHU216DAVISVP2,2013-08-03 17:32:00,
2013-08-03 11:37:00,86.3,53.7,29.74,SSE,162,0.0,4.0,33,0.00,,,0.00,WUHU216DAVISVP2,2013-08-03 17:37:00,
2013-08-03 11:43:00,87.2,56.1,29.74,NE,51,0.0,3.0,35,0.00,,,0.00,WUHU216DAVISVP2,2013-08-03 17:43:00,
2013-08-03 11:48:00,86.5,53.9,29.74,WNW,293,0.0,4.0,33,0.00,,,0.00,WUHU216DAVISVP2,2013-08-03 17:48:00,
2013-08-03 11:53:00,86.1,52.8,29.73,East,92,2.0,4.0,32,0.00,,,0.00,WUHU216DAVISVP2,2013-08-03 17:53:00,
2013-08-03 11:58:00,86.8,53.3,29.73,West,276,0.0,4.0,32,0.00,,,0.00,WUHU216DAVISVP2,2013-08-03 17:58:00,
2013-08-03 12:03:00,87.0,54.3,29.73,NE,56,1.0,4.0,33,0.00,,,0.00,WUHU216DAVISVP2,2013-08-03 18:03:00,
2013-08-03 12:08:00,87.3,53.7,29.73,NNE,18,1.0,5.0,32,0.00,,,0.00,WUHU216DAVISVP2,2013-08-03 18:08:00,
2013-08-03 12:13:00,87.6,55.8,29.73,East,79,0.0,5.0,34,0.00,,,0.00,WUHU216DAVISVP2,2013-08-03 18:13:00,
2013-08-03 12:18:00,88.6,54.0,29.72,ESE,115,0.0,5.0,31,0.00,,,0.00,WUHU216DAVISVP2,2013-08-03 18:18:00,
2013-08-03 12:23:00,89.5,54.8,29.72,WNW,299,2.0,5.0,31,0.00,,,0.00,WUHU216DAVISVP2,2013-08-03 18:23:00,
2013-08-03 12:28:00,88.9,54.2,29.72,ENE,58,3.0,4.0,31,0.00,,,0.00,WUHU216DAVISVP2,2013-08-03 18:28:00,
2013-08-03 12:33:00,88.9,55.1,29.72,WNW,287,0.0,6.0,32,0.00,,,0.00,WUHU216DAVISVP2,2013-08-03 18:33:00,
2013-08-03 12:38:00,90.0,53.4,29.72,ESE,113,0.0,6.0,29,0.00,,,0.00,WUHU216DAVISVP2,2013-08-03 18:38:00,
2013-08-03 12:43:00,89.7,54.0,29.72,North,359,6.0,7.0,30,0.00,,,0.00,WUHU216DAVISVP2,2013-08-03 18:43:00,
2013-08-03 12:48:00,89.6,52.1,29.72,WNW,289,1.0,7.0,28,0.00,,,0.00,WUHU216DAVISVP2,2013-08-03 18:48:00,
2013-08-03 12:53:00,89.8,51.4,29.72,NW,317,5.0,7.0,27,0.00,,,0.00,WUHU216DAVISVP2,2013-08-03 18:53:00,
2013-08-03 12:58:00,89.6,51.1,29.72,NNW,339,3.0,6.0,27,0.00,,,0.00,WUHU216DAVISVP2,2013-08-03 18:58:00,
2013-08-03 13:03:00,90.0,50.4,29.71,WNW,283,0.0,6.0,26,0.00,,,0.00,WUHU216DAVISVP2,2013-08-03 19:03:00,
2013-08-03 13:08:00,90.5,52.9,29.72,East,101,1.0,6.0,28,0.00,,,0.00,WUHU216DAVISVP2,2013-08-03 19:08:00,
2013-08-03 13:13:00,90.6,52.9,29.72,NNE,13,2.0,6.0,28,0.00,,,0.00,WUHU216DAVISVP2,2013-08-03 19:13:00,
2013-08-03 13:18:00,90.5,53.8,29.72,NE,41,0.0,7.0,29,0.00,,,0.00,WUHU216DAVISVP2,2013-08-03 19:18:00,
2013-08-03 13:23:00,90.1,53.5,29.72,South,172,0.0,7.0,29,0.00,,,0.00,WUHU216DAVISVP2,2013-08-03 19:23:00,
2013-08-03 13:28:00,90.3,52.7,29.72,NE,44,1.0,7.0,28,0.00,,,0.00,WUHU216DAVISVP2,2013-08-03 19:28:00,
2013-08-03 13:33:00,90.6,50.9,29.71,North,349,2.0,7.0,26,0.00,,,0.00,WUHU216DAVISVP2,2013-08-03 19:33:00,
2013-08-03 13:38:00,89.4,51.9,29.71,WNW,301,1.0,8.0,28,0.00,,,0.00,WUHU216DAVISVP2,2013-08-03 19:38:00,
2013-08-03 13:43:00,88.6,53.2,29.71,NE,37,0.0,8.0,30,0.00,,,0.00,WUHU216DAVISVP2,2013-08-03 19:43:00,
2013-08-03 13:48:00,87.9,52.5,29.71,NW,316,1.0,8.0,30,0.00,,,0.00,WUHU216DAVISVP2,2013-08-03 19:48:00,
2013-08-03 13:52:00,88.1,52.7,29.71,NE,51,2.0,8.0,30,0.00,,,0.00,WUHU216DAVISVP2,2013-08-03 19:52:00,
2013-08-03 13:57:00,88.1,52.8,29.71,NNE,33,0.0,5.0,30,0.00,,,0.00,WUHU216DAVISVP2,2013-08-03 19:57:00,
2013-08-03 14:02:00,87.5,51.2,29.71,NW,311,4.0,6.0,29,0.00,,,0.00,WUHU216DAVISVP2,2013-08-03 20:02:00,
2013-08-03 14:07:00,87.2,52.8,29.70,WNW,295,0.0,6.0,31,0.00,,,0.00,WUHU216DAVISVP2,2013-08-03 20:07:00,
2013-08-03 14:12:00,87.3,52.8,29.70,NW,311,0.0,6.0,31,0.00,,,0.00,WUHU216DAVISVP2,2013-08-03 20:12:00,
2013-08-03 14:18:00,87.5,51.2,29.70,WNW,301,2.0,6.0,29,0.00,,,0.00,WUHU216DAVISVP2,2013-08-03 20:18:00,
2013-08-03 14:23:00,88.1,52.7,29.69,NW,321,0.0,4.0,30,0.00,,,0.00,WUHU216DAVISVP2,2013-08-03 20:23:00,
2013-08-03 14:28:00,88.4,50.1,29.69,NW,322,2.0,4.0,27,0.00,,,0.00,WUHU216DAVISVP2,2013-08-03 20:28:00,
2013-08-03 14:33:00,87.9,51.7,29.68,North,1,2.0,8.0,29,0.00,,,0.00,WUHU216DAVISVP2,2013-08-03 20:33:00,
2013-08-03 14:38:00,88.1,50.9,29.68,WNW,285,2.0,8.0,28,0.00,,,0.00,WUHU216DAVISVP2,2013-08-03 20:38:00,
2013-08-03 14:43:00,88.4,51.1,29.68,North,354,3.0,8.0,28,0.00,,,0.00,WUHU216DAVISVP2,2013-08-03 20:43:00,
2013-08-03 14:48:00,89.1,50.8,29.68,ENE,75,2.0,7.0,27,0.00,,,0.00,WUHU216DAVISVP2,2013-08-03 20:48:00,
2013-08-03 14:53:00,89.2,51.8,29.68,NW,322,6.0,7.0,28,0.00,,,0.00,WUHU216DAVISVP2,2013-08-03 20:53:00,
2013-08-03 14:58:00,89.3,50.9,29.68,WNW,283,2.0,7.0,27,0.00,,,0.00,WUHU216DAVISVP2,2013-08-03 20:58:00,
2013-08-03 15:03:00,89.6,49.1,29.68,West,277,0.0,7.0,25,0.00,,,0.00,WUHU216DAVISVP2,2013-08-03 21:03:00,
2013-08-03 15:08:00,89.7,50.3,29.69,NE,37,1.0,7.0,26,0.00,,,0.00,WUHU216DAVISVP2,2013-08-03 21:08:00,
2013-08-03 15:13:00,90.5,50.9,29.68,WNW,288,2.0,5.0,26,0.00,,,0.00,WUHU216DAVISVP2,2013-08-03 21:13:00,
2013-08-03 15:18:00,90.6,52.0,29.68,WNW,283,4.0,6.0,27,0.00,,,0.00,WUHU216DAVISVP2,2013-08-03 21:18:00,
2013-08-03 15:23:00,91.3,51.5,29.68,NNE,32,2.0,6.0,26,0.00,,,0.00,WUHU216DAVISVP2,2013-08-03 21:23:00,
2013-08-03 15:28:00,91.7,50.8,29.69,ENE,58,2.0,6.0,25,0.00,,,0.00,WUHU216DAVISVP2,2013-08-03 21:28:00,
2013-08-03 15:33:00,90.2,53.5,29.70,South,188,1.0,13.0,29,0.00,,,0.00,WUHU216DAVISVP2,2013-08-03 21:33:00,
2013-08-03 15:38:00,88.1,54.4,29.70,SE,125,5.0,13.0,32,0.00,,,0.00,WUHU216DAVISVP2,2013-08-03 21:38:00,
2013-08-03 15:43:00,86.9,53.4,29.70,ESE,105,3.0,13.0,32,0.00,,,0.00,WUHU216DAVISVP2,2013-08-03 21:43:00,
2013-08-03 15:48:00,85.7,52.3,29.70,SE,129,6.0,20.0,32,0.00,,,0.00,WUHU216DAVISVP2,2013-08-03 21:48:00,
2013-08-03 15:53:00,84.7,53.1,29.70,SSE,156,5.0,20.0,34,0.00,,,0.00,WUHU216DAVISVP2,2013-08-03 21:53:00,
2013-08-03 15:58:00,84.7,54.7,29.69,SE,135,3.0,20.0,36,0.00,,,0.00,WUHU216DAVISVP2,2013-08-03 21:58:00,
2013-08-03 16:03:00,85.1,54.3,29.69,South,190,6.0,20.0,35,0.00,,,0.00,WUHU216DAVISVP2,2013-08-03 22:03:00,
2013-08-03 16:08:00,85.0,54.2,29.69,SSW,198,7.0,16.0,35,0.00,,,0.00,WUHU216DAVISVP2,2013-08-03 22:08:00,
2013-08-03 16:13:00,84.9,52.5,29.69,South,182,8.0,16.0,33,0.00,,,0.00,WUHU216DAVISVP2,2013-08-03 22:13:00,
2013-08-03 16:18:00,84.6,51.4,29.69,SW,227,3.0,16.0,32,0.00,,,0.00,WUHU216DAVISVP2,2013-08-03 22:18:00,
2013-08-03 16:23:00,84.4,53.8,29.69,SE,125,3.0,11.0,35,0.00,,,0.00,WUHU216DAVISVP2,2013-08-03 22:23:00,
2013-08-03 16:28:00,84.1,54.2,29.69,SSW,212,1.0,11.0,36,0.00,,,0.00,WUHU216DAVISVP2,2013-08-03 22:28:00,
2013-08-03 16:33:00,84.0,54.1,29.69,ESE,114,3.0,11.0,36,0.00,,,0.00,WUHU216DAVISVP2,2013-08-03 22:33:00,
2013-08-03 16:38:00,84.2,53.5,29.68,ESE,117,2.0,11.0,35,0.00,,,0.00,WUHU216DAVISVP2,2013-08-03 22:38:00,
2013-08-03 16:43:00,84.8,53.2,29.68,ESE,123,1.0,11.0,34,0.00,,,0.00,WUHU216DAVISVP2,2013-08-03 22:43:00,
2013-08-03 16:48:00,85.4,54.6,29.68,NE,46,3.0,11.0,35,0.00,,,0.00,WUHU216DAVISVP2,2013-08-03 22:48:00,
2013-08-03 16:53:00,85.7,53.2,29.68,South,169,4.0,11.0,33,0.00,,,0.00,WUHU216DAVISVP2,2013-08-03 22:53:00,
2013-08-03 16:58:00,86.1,53.5,29.68,SSW,195,1.0,11.0,33,0.00,,,0.00,WUHU216DAVISVP2,2013-08-03 22:58:00,
2013-08-03 17:03:00,86.4,52.9,29.69,East,91,3.0,11.0,32,0.00,,,0.00,WUHU216DAVISVP2,2013-08-03 23:03:00,
2013-08-03 17:08:00,86.0,57.4,29.69,NE,38,4.0,9.0,38,0.00,,,0.00,WUHU216DAVISVP2,2013-08-03 23:08:00,
2013-08-03 17:13:00,84.4,59.5,29.70,ENE,70,7.0,15.0,43,0.00,,,0.00,WUHU216DAVISVP2,2013-08-03 23:13:00,
2013-08-03 17:18:00,81.6,58.9,29.71,East,96,5.0,15.0,46,0.00,,,0.00,WUHU216DAVISVP2,2013-08-03 23:18:00,
2013-08-03 17:23:00,79.0,57.0,29.72,North,7,4.0,15.0,47,0.00,,,0.00,WUHU216DAVISVP2,2013-08-03 23:23:00,
2013-08-03 17:28:00,77.4,58.0,29.72,East,92,5.0,22.0,51,0.00,,,0.00,WUHU216DAVISVP2,2013-08-03 23:28:00,
2013-08-03 17:33:00,76.8,58.5,29.72,ESE,119,2.0,22.0,53,0.00,,,0.00,WUHU216DAVISVP2,2013-08-03 23:33:00,
2013-08-03 17:38:00,76.8,58.5,29.72,NE,34,5.0,22.0,53,0.00,,,0.00,WUHU216DAVISVP2,2013-08-03 23:38:00,
2013-08-03 17:43:00,76.0,58.3,29.73,ENE,69,2.0,16.0,54,0.00,,,0.00,WUHU216DAVISVP2,2013-08-03 23:43:00,
2013-08-03 17:48:00,75.4,57.7,29.74,ESE,113,2.0,16.0,54,0.00,,,0.00,WUHU216DAVISVP2,2013-08-03 23:48:00,
2013-08-03 17:53:00,75.0,57.9,29.74,ESE,117,7.0,16.0,55,0.00,,,0.00,WUHU216DAVISVP2,2013-08-03 23:53:00,
2013-08-03 17:58:00,74.6,58.0,29.74,South,176,2.0,16.0,56,0.00,,,0.00,WUHU216DAVISVP2,2013-08-03 23:58:00,
2013-08-03 18:03:00,73.7,56.7,29.74,SE,136,3.0,16.0,55,0.00,,,0.00,WUHU216DAVISVP2,2013-08-04 00:03:00,
2013-08-03 18:08:00,73.3,56.8,29.75,SSE,164,2.0,16.0,56,0.00,,,0.00,WUHU216DAVISVP2,2013-08-04 00:08:00,
2013-08-03 18:13:00,73.5,57.0,29.78,NW,323,4.0,16.0,56,0.00,,,0.00,WUHU216DAVISVP2,2013-08-04 00:13:00,
2013-08-03 18:18:00,73.7,56.5,29.80,NNW,330,2.0,13.0,55,0.00,,,0.00,WUHU216DAVISVP2,2013-08-04 00:18:00,
2013-08-03 18:23:00,73.7,56.7,29.81,NE,38,1.0,13.0,55,0.00,,,0.00,WUHU216DAVISVP2,2013-08-04 00:23:00,
2013-08-03 18:28:00,73.4,56.9,29.80,East,96,5.0,12.0,56,0.00,,,0.00,WUHU216DAVISVP2,2013-08-04 00:28:00,
2013-08-03 18:33:00,72.9,55.8,29.82,NE,37,3.0,12.0,55,0.00,,,0.00,WUHU216DAVISVP2,2013-08-04 00:33:00,
2013-08-03 18:38:00,72.6,55.7,29.83,NNE,18,2.0,12.0,55,0.00,,,0.00,WUHU216DAVISVP2,2013-08-04 00:38:00,
2013-08-03 18:43:00,72.0,55.6,29.83,NE,46,3.0,12.0,56,0.00,,,0.00,WUHU216DAVISVP2,2013-08-04 00:43:00,
2013-08-03 18:48:00,71.6,55.1,29.82,East,97,2.0,10.0,56,0.00,,,0.00,WUHU216DAVISVP2,2013-08-04 00:48:00,
2013-08-03 18:53:00,71.3,54.8,29.83,NNE,32,3.0,7.0,56,0.00,,,0.00,WUHU216DAVISVP2,2013-08-04 00:53:00,
2013-08-03 18:58:00,71.0,56.1,29.84,NNW,337,4.0,9.0,59,0.00,,,0.00,WUHU216DAVISVP2,2013-08-04 00:58:00,
2013-08-03 19:03:00,70.8,55.9,29.85,North,8,3.0,9.0,59,0.00,,,0.00,WUHU216DAVISVP2,2013-08-04 01:03:00,
2013-08-03 19:08:00,69.3,57.2,29.87,NW,310,7.0,18.0,65,0.00,,,0.00,WUHU216DAVISVP2,2013-08-04 01:08:00,
2013-08-03 19:13:00,67.8,57.4,29.88,NNW,342,6.0,18.0,69,0.00,,,0.00,WUHU216DAVISVP2,2013-08-04 01:13:00,
2013-08-03 19:18:00,67.0,58.6,29.89,WNW,302,1.0,18.0,74,0.00,,,0.00,WUHU216DAVISVP2,2013-08-04 01:18:00,
2013-08-03 19:23:00,66.2,58.9,29.91,NE,40,5.0,18.0,77,0.03,,,0.03,WUHU216DAVISVP2,2013-08-04 01:23:00,
2013-08-03 19:28:00,64.5,59.6,29.93,NNE,20,2.0,14.0,84,0.19,,,0.21,WUHU216DAVISVP2,2013-08-04 01:28:00,
2013-08-03 19:33:00,63.2,58.9,29.92,NW,304,4.0,11.0,86,0.46,,,0.46,WUHU216DAVISVP2,2013-08-04 01:33:00,
2013-08-03 19:38:00,61.9,58.3,29.92,NNE,27,2.0,12.0,88,0.75,,,0.75,WUHU216DAVISVP2,2013-08-04 01:38:00,
2013-08-03 19:43:00,61.0,58.0,29.92,NNE,29,5.0,13.0,90,0.93,,,0.94,WUHU216DAVISVP2,2013-08-04 01:43:00,
2013-08-03 19:48:00,60.5,57.8,29.92,West,277,3.0,13.0,91,1.03,,,1.03,WUHU216DAVISVP2,2013-08-04 01:48:00,
2013-08-03 19:53:00,60.1,57.4,29.92,East,96,5.0,14.0,91,1.11,,,1.11,WUHU216DAVISVP2,2013-08-04 01:53:00,
2013-08-03 19:58:00,59.9,57.5,29.91,West,273,3.0,14.0,92,1.15,,,1.15,WUHU216DAVISVP2,2013-08-04 01:58:00,
2013-08-03 20:03:00,59.4,56.4,29.91,NE,41,6.0,15.0,90,1.17,,,1.18,WUHU216DAVISVP2,2013-08-04 02:03:00,
2013-08-03 20:08:00,59.1,56.4,29.91,East,79,15.0,16.0,91,1.20,,,1.20,WUHU216DAVISVP2,2013-08-04 02:08:00,
2013-08-03 20:13:00,58.8,55.9,29.90,ENE,58,14.0,16.0,90,1.21,,,1.21,WUHU216DAVISVP2,2013-08-04 02:13:00,
2013-08-03 20:18:00,58.8,55.6,29.90,SSW,210,5.0,21.0,89,1.22,,,1.22,WUHU216DAVISVP2,2013-08-04 02:18:00,
2013-08-03 20:23:00,58.8,55.8,29.91,West,274,4.0,21.0,90,1.19,,,1.22,WUHU216DAVISVP2,2013-08-04 02:23:00,
2013-08-03 20:28:00,59.0,56.0,29.91,WSW,246,1.0,21.0,90,1.02,,,1.23,WUHU216DAVISVP2,2013-08-04 02:28:00,
2013-08-03 20:33:00,59.2,56.5,29.92,NE,56,0.0,21.0,91,0.78,,,1.24,WUHU216DAVISVP2,2013-08-04 02:33:00,
2013-08-03 20:38:00,59.4,57.0,29.92,SSW,198,3.0,13.0,92,0.49,,,1.24,WUHU216DAVISVP2,2013-08-04 02:38:00,
2013-08-03 20:43:00,59.8,57.4,29.93,SE,124,1.0,13.0,92,0.30,,,1.24,WUHU216DAVISVP2,2013-08-04 02:43:00,
2013-08-03 20:48:00,60.1,57.7,29.93,ENE,70,2.0,10.0,92,0.21,,,1.24,WUHU216DAVISVP2,2013-08-04 02:48:00,
2013-08-03 20:53:00,60.0,57.0,29.94,SSW,204,0.0,6.0,90,0.13,,,1.24,WUHU216DAVISVP2,2013-08-04 02:53:00,
2013-08-03 20:58:00,60.0,57.3,29.94,East,81,1.0,6.0,91,0.09,,,1.24,WUHU216DAVISVP2,2013-08-04 02:58:00,
2013-08-03 21:03:00,59.8,57.1,29.94,WSW,245,1.0,6.0,91,0.06,,,1.24,WUHU216DAVISVP2,2013-08-04 03:03:00,
2013-08-03 21:08:00,59.8,57.1,29.94,WSW,244,0.0,6.0,91,0.04,,,1.24,WUHU216DAVISVP2,2013-08-04 03:08:00,
2013-08-03 21:13:00,59.6,56.9,29.94,SW,219,0.0,4.0,91,0.03,,,1.24,WUHU216DAVISVP2,2013-08-04 03:13:00,
2013-08-03 21:18:00,59.6,57.2,29.94,SW,220,0.0,3.0,92,0.02,,,1.24,WUHU216DAVISVP2,2013-08-04 03:18:00,
2013-08-03 21:23:00,59.5,57.1,29.94,West,259,0.0,3.0,92,0.02,,,1.24,WUHU216DAVISVP2,2013-08-04 03:23:00,
2013-08-03 21:28:00,59.4,57.0,29.94,West,264,0.0,3.0,92,0.01,,,1.24,WUHU216DAVISVP2,2013-08-04 03:28:00,
2013-08-03 21:33:00,59.4,57.0,29.94,WSW,248,0.0,1.0,92,0.00,,,1.24,WUHU216DAVISVP2,2013-08-04 03:33:00,
2013-08-03 21:38:00,59.4,57.0,29.95,WNW,282,1.0,2.0,92,0.00,,,1.24,WUHU216DAVISVP2,2013-08-04 03:38:00,
2013-08-03 21:43:00,59.3,56.9,29.96,WNW,289,0.0,2.0,92,0.00,,,1.24,WUHU216DAVISVP2,2013-08-04 03:43:00,
2013-08-03 21:48:00,59.3,56.9,29.96,West,268,1.0,3.0,92,0.00,,,1.24,WUHU216DAVISVP2,2013-08-04 03:48:00,
2013-08-03 21:53:00,59.3,57.0,29.96,WSW,257,0.0,3.0,92,0.00,,,1.24,WUHU216DAVISVP2,2013-08-04 03:53:00,
2013-08-03 21:58:00,59.3,57.0,29.95,WSW,245,0.0,3.0,92,0.00,,,1.24,WUHU216DAVISVP2,2013-08-04 03:58:00,
2013-08-03 22:01:00,59.3,57.3,29.95,WSW,245,0.0,3.0,93,0.00,,,1.24,WUHU216DAVISVP2,2013-08-04 04:01:00,
2013-08-03 22:06:00,59.1,57.0,29.96,WSW,245,0.0,3.0,93,0.00,,,1.24,WUHU216DAVISVP2,2013-08-04 04:06:00,
2013-08-03 22:11:00,59.0,57.2,29.96,WSW,245,0.0,3.0,94,0.00,,,1.24,WUHU216DAVISVP2,2013-08-04 04:11:00,
2013-08-03 22:16:00,58.9,57.1,29.97,WSW,245,0.0,1.0,94,0.00,,,1.24,WUHU216DAVISVP2,2013-08-04 04:16:00,
2013-08-03 22:21:00,59.0,57.2,29.96,WSW,245,0.0,1.0,94,0.00,,,1.24,WUHU216DAVISVP2,2013-08-04 04:21:00,
2013-08-03 22:26:00,59.0,57.2,29.96,WSW,244,0.0,1.0,94,0.00,,,1.24,WUHU216DAVISVP2,2013-08-04 04:26:00,
2013-08-03 22:31:00,59.0,57.2,29.96,WSW,246,0.0,2.0,94,0.00,,,1.24,WUHU216DAVISVP2,2013-08-04 04:31:00,
2013-08-03 22:36:00,59.2,57.4,29.96,South,190,0.0,2.0,94,0.00,,,1.24,WUHU216DAVISVP2,2013-08-04 04:36:00,
2013-08-03 22:41:00,59.1,57.0,29.96,SSW,207,1.0,2.0,93,0.00,,,1.24,WUHU216DAVISVP2,2013-08-04 04:41:00,
2013-08-03 22:46:00,59.3,57.2,29.96,SSW,207,0.0,2.0,93,0.00,,,1.24,WUHU216DAVISVP2,2013-08-04 04:46:00,
2013-08-03 22:51:00,59.2,57.1,29.96,SSW,203,0.0,1.0,93,0.00,,,1.24,WUHU216DAVISVP2,2013-08-04 04:51:00,
2013-08-03 22:56:00,59.1,57.0,29.96,SSW,204,0.0,1.0,93,0.00,,,1.24,WUHU216DAVISVP2,2013-08-04 04:56:00,
2013-08-03 23:01:00,59.2,56.9,29.96,SW,233,1.0,2.0,92,0.00,,,1.24,WUHU216DAVISVP2,2013-08-04 05:01:00,
2013-08-03 23:06:00,59.2,56.6,29.95,South,179,0.0,3.0,91,0.00,,,1.24,WUHU216DAVISVP2,2013-08-04 05:06:00,
2013-08-03 23:11:00,59.3,56.4,29.95,SSW,194,2.0,3.0,90,0.00,,,1.24,WUHU216DAVISVP2,2013-08-04 05:11:00,
2013-08-03 23:16:00,59.5,56.2,29.95,WSW,243,0.0,4.0,89,0.00,,,1.24,WUHU216DAVISVP2,2013-08-04 05:16:00,
2013-08-03 23:21:00,59.5,56.5,29.95,SSW,201,0.0,4.0,90,0.00,,,1.24,WUHU216DAVISVP2,2013-08-04 05:21:00,
2013-08-03 23:26:00,59.3,56.0,29.94,SE,132,0.0,4.0,89,0.00,,,1.24,WUHU216DAVISVP2,2013-08-04 05:26:00,
2013-08-03 23:31:00,59.1,56.1,29.94,WSW,254,0.0,4.0,90,0.00,,,1.24,WUHU216DAVISVP2,2013-08-04 05:31:00,
2013-08-03 23:36:00,58.9,55.9,29.94,East,91,0.0,2.0,90,0.00,,,1.24,WUHU216DAVISVP2,2013-08-04 05:36:00,
2013-08-03 23:41:00,58.6,55.6,29.94,SSW,203,0.0,1.0,90,0.00,,,1.24,WUHU216DAVISVP2,2013-08-04 05:41:00,
2013-08-03 23:46:00,58.5,55.8,29.93,ESE,123,0.0,1.0,91,0.00,,,1.24,WUHU216DAVISVP2,2013-08-04 05:46:00,
2013-08-03 23:52:00,58.2,55.8,29.93,South,186,0.0,1.0,92,0.00,,,1.24,WUHU216DAVISVP2,2013-08-04 05:52:00,
2013-08-03 23:57:00,58.0,55.7,29.92,South,186,0.0,1.0,92,0.00,,,1.24,WUHU216DAVISVP2,2013-08-04 05:57:00,